When you browse on this site, cookies collect data to enhance your experience and personalize the content and advertising you see.
Visit our Privacy Policy to learn more. By continuing to use the site, you agree to this use of cookies and data.
  • In Hungary
  • List of Countries
  • For 7 days
  • Water Temperature
  • Weather Map
  • News
  • Weather Widgets
  • user-avatar
    Login

    Hourly Weather Vidin

    Today, 28 May, Thursday

    Time Temperature Precipitation Wind Pressure Humidity
    00:00 +11°C° 0 mm 3 mps 763 mmHg 84%
    01:00 +11°C° 0 mm 3 mps 763 mmHg 86%
    02:00 +10°C° 0 mm 2 mps 763 mmHg 88%
    03:00 +10°C° 0 mm 2 mps 763 mmHg 89%
    04:00 +10°C° 0 mm 2 mps 762 mmHg 89%
    05:00 +10°C° 0 mm 3 mps 762 mmHg 90%
    06:00 +11°C° 0 mm 3 mps 762 mmHg 85%
    07:00 +13°C° 0 mm 4 mps 762 mmHg 81%
    08:00 +14°C° 0 mm 5 mps 761 mmHg 77%
    09:00 +15°C° 0 mm 5 mps 761 mmHg 72%
    10:00 +17°C° 0 mm 5 mps 761 mmHg 67%
    11:00 +19°C° 0 mm 6 mps 760 mmHg 63%
    12:00 +20°C° 0.2 mm 6 mps 760 mmHg 60%
    13:00 +20°C° 0.2 mm 5 mps 759 mmHg 57%
    14:00 +21°C° 0.2 mm 5 mps 759 mmHg 54%
    15:00 +21°C° 0.3 mm 5 mps 758 mmHg 56%
    16:00 +21°C° 0.3 mm 5 mps 758 mmHg 58%
    17:00 +20°C° 0.3 mm 5 mps 758 mmHg 60%
    18:00 +19°C° 0.1 mm 5 mps 758 mmHg 65%
    19:00 +17°C° 0.1 mm 4 mps 758 mmHg 70%
    20:00 +15°C° 0.1 mm 4 mps 758 mmHg 74%
    21:00 +14°C° 0.1 mm 4 mps 758 mmHg 76%
    22:00 +13°C° 0.1 mm 4 mps 759 mmHg 78%
    23:00 +12°C° 0.1 mm 4 mps 759 mmHg 80%

    Tomorrow, 29 May, Friday

    Time Temperature Precipitation Wind Pressure Humidity
    00:00 +12°C° 0 mm 4 mps 759 mmHg 82%
    01:00 +11°C° 0 mm 3 mps 759 mmHg 84%
    02:00 +11°C° 0 mm 3 mps 759 mmHg 85%
    03:00 +11°C° 0 mm 3 mps 759 mmHg 86%
    04:00 +11°C° 0 mm 3 mps 759 mmHg 87%
    05:00 +10°C° 0 mm 3 mps 759 mmHg 89%
    06:00 +12°C° 0 mm 4 mps 759 mmHg 84%
    07:00 +14°C° 0 mm 5 mps 759 mmHg 79%
    08:00 +15°C° 0 mm 6 mps 759 mmHg 75%
    09:00 +16°C° 0 mm 6 mps 759 mmHg 71%
    10:00 +17°C° 0 mm 7 mps 759 mmHg 68%
    11:00 +20°C° 0 mm 7 mps 759 mmHg 64%
    12:00 +20°C° 0 mm 7 mps 759 mmHg 62%
    13:00 +21°C° 0 mm 7 mps 758 mmHg 61%
    14:00 +21°C° 0 mm 7 mps 758 mmHg 59%
    15:00 +21°C° 0 mm 6 mps 758 mmHg 59%
    16:00 +21°C° 0 mm 6 mps 757 mmHg 58%
    17:00 +21°C° 0 mm 5 mps 757 mmHg 58%
    18:00 +20°C° 0 mm 5 mps 757 mmHg 64%
    19:00 +18°C° 0 mm 4 mps 757 mmHg 69%
    20:00 +17°C° 0 mm 4 mps 757 mmHg 75%
    21:00 +15°C° 0 mm 4 mps 757 mmHg 77%
    22:00 +14°C° 0 mm 4 mps 758 mmHg 79%
    23:00 +14°C° 0 mm 4 mps 758 mmHg 81%

    Day after tomorrow, 30 May, Saturday

    Time Temperature Precipitation Wind Pressure Humidity
    00:00 +13°C° 0 mm 4 mps 758 mmHg 82%
    01:00 +13°C° 0 mm 4 mps 758 mmHg 84%
    02:00 +12°C° 0 mm 4 mps 758 mmHg 85%
    03:00 +12°C° 0 mm 4 mps 758 mmHg 86%
    04:00 +12°C° 0 mm 4 mps 758 mmHg 87%
    05:00 +11°C° 0 mm 4 mps 758 mmHg 88%
    06:00 +13°C° 0 mm 4 mps 758 mmHg 82%
    07:00 +15°C° 0 mm 5 mps 758 mmHg 76%
    08:00 +17°C° 0 mm 5 mps 758 mmHg 70%
    09:00 +19°C° 0 mm 5 mps 758 mmHg 65%
    10:00 +20°C° 0 mm 5 mps 758 mmHg 60%
    11:00 +22°C° 0 mm 5 mps 757 mmHg 55%
    12:00 +22°C° 0 mm 5 mps 757 mmHg 54%
    13:00 +23°C° 0 mm 5 mps 757 mmHg 52%
    14:00 +23°C° 0 mm 5 mps 756 mmHg 51%
    15:00 +23°C° 0 mm 5 mps 756 mmHg 52%
    16:00 +23°C° 0 mm 4 mps 756 mmHg 54%
    17:00 +23°C° 0 mm 4 mps 756 mmHg 55%
    18:00 +21°C° 0 mm 4 mps 756 mmHg 62%
    19:00 +19°C° 0 mm 4 mps 756 mmHg 69%
    20:00 +17°C° 0 mm 3 mps 756 mmHg 76%
    21:00 +17°C° 0 mm 4 mps 756 mmHg 77%
    22:00 +15°C° 0 mm 4 mps 757 mmHg 79%
    23:00 +14°C° 0 mm 4 mps 757 mmHg 81%

    31 May, Sunday

    Time Temperature Precipitation Wind Pressure Humidity
    00:00 +14°C° 0 mm 4 mps 757 mmHg 81%
    01:00 +14°C° 0 mm 4 mps 757 mmHg 81%
    02:00 +13°C° 0 mm 4 mps 757 mmHg 81%
    03:00 +13°C° 0 mm 4 mps 757 mmHg 82%
    04:00 +13°C° 0 mm 4 mps 757 mmHg 82%
    05:00 +13°C° 0 mm 4 mps 756 mmHg 82%
    06:00 +14°C° 0 mm 5 mps 756 mmHg 79%
    07:00 +16°C° 0 mm 5 mps 756 mmHg 75%
    08:00 +17°C° 0 mm 6 mps 756 mmHg 72%
    09:00 +19°C° 0 mm 6 mps 756 mmHg 68%
    10:00 +20°C° 0 mm 7 mps 756 mmHg 64%
    11:00 +20°C° 0 mm 7 mps 756 mmHg 59%
    12:00 +21°C° 0 mm 7 mps 756 mmHg 56%
    13:00 +22°C° 0 mm 7 mps 755 mmHg 53%
    14:00 +23°C° 0 mm 7 mps 755 mmHg 49%
    15:00 +22°C° 0 mm 7 mps 755 mmHg 50%
    16:00 +22°C° 0 mm 7 mps 754 mmHg 51%
    17:00 +21°C° 0 mm 7 mps 754 mmHg 51%
    18:00 +20°C° 0 mm 6 mps 754 mmHg 56%
    19:00 +17°C° 0 mm 6 mps 755 mmHg 61%
    20:00 +16°C° 0 mm 5 mps 755 mmHg 66%
    21:00 +15°C° 0 mm 5 mps 755 mmHg 69%
    22:00 +14°C° 0 mm 5 mps 755 mmHg 72%
    23:00 +14°C° 0 mm 5 mps 755 mmHg 75%

    1 June, Monday

    Time Temperature Precipitation Wind Pressure Humidity
    00:00 +14°C° 0 mm 5 mps 755 mmHg 76%
    01:00 +13°C° 0 mm 5 mps 755 mmHg 77%
    02:00 +13°C° 0 mm 6 mps 755 mmHg 78%
    03:00 +13°C° 0 mm 5 mps 755 mmHg 78%
    04:00 +13°C° 0 mm 5 mps 754 mmHg 78%
    05:00 +12°C° 0 mm 5 mps 754 mmHg 78%
    06:00 +13°C° 0 mm 5 mps 754 mmHg 77%
    07:00 +14°C° 0 mm 5 mps 754 mmHg 77%
    08:00 +14°C° 0 mm 5 mps 754 mmHg 77%
    09:00 +15°C° 0 mm 6 mps 754 mmHg 74%
    10:00 +16°C° 0 mm 6 mps 754 mmHg 71%
    11:00 +17°C° 0 mm 6 mps 754 mmHg 69%
    12:00 +17°C° 0.2 mm 6 mps 754 mmHg 68%
    13:00 +17°C° 0.2 mm 7 mps 754 mmHg 68%
    14:00 +18°C° 0.2 mm 7 mps 754 mmHg 67%
    15:00 +18°C° 0.3 mm 7 mps 753 mmHg 67%
    16:00 +18°C° 0.3 mm 7 mps 753 mmHg 68%
    17:00 +19°C° 0.3 mm 6 mps 753 mmHg 68%
    18:00 +17°C° 0 mm 6 mps 753 mmHg 73%
    19:00 +16°C° 0 mm 5 mps 753 mmHg 78%
    20:00 +14°C° 0 mm 4 mps 753 mmHg 83%
    21:00 +14°C° 0 mm 4 mps 754 mmHg 85%
    22:00 +13°C° 0 mm 3 mps 754 mmHg 87%
    23:00 +13°C° 0 mm 3 mps 754 mmHg 88%

    2 June, Tuesday

    Time Temperature Precipitation Wind Pressure Humidity
    00:00 +12°C° 0 mm 3 mps 754 mmHg 89%
    01:00 +12°C° 0 mm 3 mps 754 mmHg 90%
    02:00 +13°C° 0 mm 2 mps 754 mmHg 91%
    03:00 +13°C° 0 mm 2 mps 754 mmHg 91%
    04:00 +12°C° 0 mm 2 mps 754 mmHg 92%
    05:00 +12°C° 0 mm 1 mps 754 mmHg 92%
    06:00 +14°C° 0.1 mm 1 mps 754 mmHg 87%
    07:00 +16°C° 0.1 mm 1 mps 755 mmHg 82%
    08:00 +18°C° 0.1 mm 1 mps 755 mmHg 76%
    09:00 +18°C° 0.9 mm 2 mps 755 mmHg 74%
    10:00 +19°C° 0.9 mm 2 mps 755 mmHg 71%
    11:00 +20°C° 0.9 mm 2 mps 755 mmHg 68%
    12:00 +21°C° 1.1 mm 2 mps 755 mmHg 66%
    13:00 +23°C° 1.1 mm 2 mps 754 mmHg 64%
    14:00 +22°C° 1.1 mm 3 mps 754 mmHg 63%
    15:00 +23°C° 0.6 mm 2 mps 754 mmHg 62%
    16:00 +23°C° 0.6 mm 2 mps 753 mmHg 62%
    17:00 +23°C° 0.6 mm 2 mps 753 mmHg 61%
    18:00 +21°C° 0.5 mm 2 mps 753 mmHg 68%
    19:00 +19°C° 0.5 mm 2 mps 753 mmHg 75%
    20:00 +18°C° 0.5 mm 2 mps 754 mmHg 82%
    21:00 +17°C° 0.4 mm 2 mps 754 mmHg 85%
    22:00 +16°C° 0.4 mm 2 mps 754 mmHg 88%
    23:00 +15°C° 0.4 mm 2 mps 755 mmHg 91%
    Show more